Location: Newark
(41.6500°N, 71.4833°W)
Time: 23:02:23
(UTC+00:00)

deb Explorer IX - Pass Details

Date: 31 January 2020
Orbit: 549 x 1099 km, 38.8° (Epoch: 19 February)

Event Time Altitude Azimuth Distance (km) Brightness Sun altitude
Rises 05:40:44 0° 278° (W) 3,860 - -64.3°
Reaches altitude 10° 05:43:48 10° 269° (W) 2,934 - -64.1°
Maximum altitude 05:49:54 30° 212° (SSW) 1,858 - -63.5°
Drops below altitude 10° 05:55:55 10° 154° (SSE) 2,885 - -63.0°
Sets 05:58:54 0° 144° (SE) 3,786 - -62.7°
